User: anonymous   Login
Location: Caltech
(34.1382°N, 118.1253°W)
Time: 14:16:18
(UTC-07:00)
Language:

Cosmos 1484 Rocket - Orbit

View from above orbital plane
View from above orbital plane
View from above satellite
View from above satellite

Ground track
Ground track

The orbit data is extracted from the following two-line orbital elements,

1 14208U 83075B   16121.63186213 +.00000678 +00000-0 +44895-4 0  9994
2 14208 097.3578 142.8980 0041574 113.0710 247.4911 15.09867964784947
Epoch (UTC): 30 April 2016 15:09:52
Eccentricity: 0.0041574
inclination: 97.3578°
perigee height: 508 km
apogee height: 565 km
right ascension of ascending node: 142.8980°
argument of perigee: 113.0710°
revolutions per day: 15.09867964
mean anomaly at epoch: 247.4911°
orbit number at epoch: 78494

The dashed part of the orbit path shows where the satellite is in the earth's shadow,  

DLR